{"data":{"norad_id":67012,"epoch":"2026-05-25T01:32:26.619072Z","epoch_age_seconds":63310,"freshness":"FRESH","line1":"1 67012U 25293K   26145.06419698  .00005684  00000+0  48361-3 0  9995","line2":"2 67012  70.0007 262.0594 0003323 268.9909  91.0869 14.98340749 26329","mean_motion":14.98340749,"eccentricity":0.0003323,"inclination_deg":70.0007,"raan_deg":262.0594,"arg_perigee_deg":268.9909,"mean_anomaly_deg":91.0869,"bstar":0.00048361,"rev_number":2632,"period_min":96.106309660273,"perigee_km":569.71311269538,"apogee_km":574.33218879927,"semimajor_km":6950.1596507473,"source":"CELESTRAK","updated_at":"2026-05-25T13:38:21.431393Z"}}